STARLINK-1285 (45410 NORAD) Tracking and Keplerian Element Data

This shows tracking and keplerian element data for the satellite.

Feedback or suggestion? Click here.




ElementValue
Catalog45410
NameSTARLINK-1285
Epoch Orbit1144
Epoch Day149.16667824
Epoch Year2020
RAAN268.3479
Inclination52.9996
Eccentricity0.0001425
Argument of Perigee48.1683
Mean Anonmoly46.2013
Mean Motion15.62747596
Decay Rate0.00054038
L11 45410U 20019BC 20149.16667824 .00054038 00000-0 59218-3 0 9990
L22 45410 52.9996 268.3479 0001425 48.1683 46.2013 15.62747596 11445

Live tracking and technical data element details for STARLINK-1285 (NORAD 45410). STARLINK-1285 can be tracked NOW for your location showing map with azimuth and elevation plus other details from your city location.

Track the satellite on the map from your city or location and see movement details for azimuth, elevation, latitude, longitude, range, height, and movement on the map or in text.







IsCatalogInMostPopularTable: catalog: 45410, numindb: 19
Update: records affected: 1



GetName: 45410 STARLINK-1285

Hit Count: updated at: Sat, 30 May 2020 16:12:42 GMT